Temp
13 12 12 12 12 12 12 12 12 11 11 11 11 11 11 11 11 11 10 10 10 10 10 10 10 10 10 10 9 9 9 8 8 8 8 8 8 7 7 7 7 7
13 13 12 12 12 12 12 12 12 11 11 11 11 11 11 11 11 11 10 10 10 10 10 9 9 9 10 9 9 9 9 8 8 8 8 8 8 7 7 7 7 6
13 13 12 12 12 12 12 12 12 12 11 11 11 11 11 11 11 10 10 10 10 10 10 9 9 9 9 9 9 9 8 8 8 8 8 8 7 7 7 7 6 6
13 13 13 12 12 12 12 12 12 11 11 11 11 11 10 10 10 10 10 10 10 10 9 9 9 9 9 9 8 8 8 8 8 8 8 7 7 7 7 7 7 6
13 13 13 12 12 12 12 11 11 11 11 11 11 11 10 10 10 10 10 10 10 9 9 9 9 9 9 8 8 8 8 8 8 8 7 7 7 7 6 6 6 6
13 13 13 12 12 12 12 11 11 11 11 11 11 11 10 10 10 10 9 9 9 9 9 9 9 9 8 8 8 8 8 8 8 7 7 7 7 6 6 5 5 5
13 13 12 12 12 12 12 11 11 11 11 11 11 11 10 10 10 9 9 9 9 9 9 9 8 8 8 8 8 8 8 8 8 7 7 7 7 6 6 5 5 5
13 13 12 12 12 12 12 11 11 11 11 11 11 10 10 10 10 9 9 9 9 9 9 8 8 8 7 8 8 7 8 8 7 7 7 7 6 6 6 6 6 5
13 13 13 12 12 12 12 11 11 11 11 11 10 10 10 10 9 9 9 9 9 9 8 8 7 7 7 7 7 7 7 7 7 7 7 7 6 6 6 6 5 5
13 13 12 12 12 12 12 11 11 11 11 10 10 10 10 10 9 9 9 9 9 8 8 7 7 7 7 7 7 7 7 7 7 7 7 7 6 6 6 5 5 5
13 13 12 12 12 12 12 11 11 11 11 10 10 10 10 10 10 9 9 9 8 8 7 7 7 7 7 6 6 6 6 7 7 7 7 7 6 6 6 5 5 5
13 13 13 12 12 12 12 11 11 11 11 10 10 10 10 10 10 9 9 9 9 8 8 7 6 6 6 6 6 6 6 7 7 7 7 6 6 6 6 5 5 5
13 13 13 12 12 12 11 11 11 11 11 10 10 10 10 10 10 9 9 9 8 9 8 7 6 6 6 6 6 6 6 6 7 7 6 6 6 6 6 5 5 5
13 13 13 12 12 12 12 11 11 11 10 10 10 10 10 10 9 9 9 9 8 8 8 7 7 6 6 6 6 6 6 6 6 6 6 6 6 5 5 5 5 5
13 13 13 13 12 12 12 11 11 10 10 9 9 10 10 9 9 9 9 9 9 8 7 7 7 7 6 6 6 6 6 6 6 6 6 6 5 5 5 5 5 5
13 13 13 13 13 12 12 12 11 11 10 9 10 10 10 9 9 9 9 9 9 8 7 7 7 6 6 6 5 6 6 6 6 6 6 5 5 5 5 5 5 5
13 13 13 13 13 13 12 12 12 12 11 10 10 10 10 10 9 9 9 9 9 8 6 6 6 6 6 6 5 5 5 6 6 6 6 6 5 5 5 5 5 4
13 13 13 13 13 13 12 12 12 12 12 11 11 11 10 10 9 9 9 9 8 7 6 6 6 6 6 5 5 5 5 6 6 6 6 6 5 5 5 4 4 4
13 13 13 13 13 13 13 13 13 12 12 12 12 12 11 11 10 9 9 8 7 7 7 6 6 6 5 5 5 5 5 6 6 6 6 6 5 5 5 4 4 4
13 13 13 13 13 13 13 13 13 13 13 12 12 12 12 11 10 9 8 8 7 7 7 6 6 5 5 4 5 5 5 6 6 6 6 6 5 5 5 4 4 4
13 13 13 13 13 13 13 13 13 13 12 12 12 12 11 11 10 9 8 8 7 7 6 6 6 5 5 5 5 5 5 6 6 6 6 5 5 5 5 4 4 4
13 13 13 13 13 13 13 13 13 12 12 12 11 11 11 11 10 9 8 7 7 6 6 6 6 5 5 5 5 5 5 5 5 5 5 5 5 5 4 4 4 4
13 13 13 13 13 13 13 13 12 12 12 11 11 11 11 10 10 9 8 7 7 6 6 5 5 6 5 5 5 5 5 5 5 5 5 5 5 5 4 4 4 4
13 13 13 13 13 13 13 13 12 12 12 11 11 11 11 10 9 9 8 7 7 6 6 5 5 5 5 5 5 5 5 5 5 5 5 5 4 4 4 4 4 4
13 12 12 12 12 12 13 12 12 12 11 11 11 11 10 10 9 9 8 7 7 6 6 6 6 6 6 5 5 5 5 5 5 5 5 5 4 4 4 4 4 4
12 12 12 12 12 12 12 12 11 11 11 10 10 10 10 10 9 9 8 7 7 6 6 6 6 6 6 6 5 5 5 5 5 5 5 5 4 4 4 4 4 4
Height
3191 3192 3193 3194 3195 3195 3195 3196 3196 3197 3197 3197 3197 3197 3197 3197 3197 3197 3196 3196 3196 3195 3195 3194 3193 3192 3192 3190 3190 3189 3188 3187 3187 3186 3186 3185 3185 3184 3183 3183 3182 3182
3189 3190 3191 3192 3192 3193 3194 3194 3195 3195 3196 3196 3196 3195 3195 3195 3195 3195 3195 3194 3194 3194 3194 3193 3192 3191 3191 3190 3189 3188 3187 3187 3186 3186 3185 3184 3184 3183 3182 3182 3181 3181
3187 3188 3189 3190 3190 3191 3192 3193 3193 3193 3194 3194 3194 3194 3194 3193 3193 3193 3193 3193 3193 3193 3192 3192 3191 3191 3190 3189 3188 3187 3187 3186 3186 3185 3184 3183 3183 3182 3182 3181 3180 3180
3185 3186 3187 3188 3188 3190 3190 3191 3191 3192 3193 3192 3192 3192 3191 3191 3191 3191 3191 3191 3191 3191 3191 3190 3190 3189 3189 3188 3187 3186 3186 3185 3185 3184 3183 3182 3182 3181 3180 3179 3179 3178
3182 3184 3185 3185 3186 3187 3188 3189 3190 3190 3190 3190 3190 3189 3189 3189 3189 3188 3188 3188 3188 3189 3189 3189 3188 3188 3187 3187 3186 3185 3185 3185 3184 3183 3182 3181 3180 3179 3178 3177 3176 3176
3180 3181 3182 3183 3184 3185 3186 3187 3187 3187 3187 3187 3187 3187 3187 3187 3186 3186 3186 3186 3186 3186 3186 3187 3187 3186 3186 3185 3184 3183 3184 3184 3182 3181 3180 3179 3178 3177 3176 3175 3175 3174
3178 3179 3180 3180 3181 3183 3184 3184 3184 3184 3185 3185 3185 3184 3184 3183 3183 3183 3184 3184 3184 3183 3183 3185 3185 3184 3184 3183 3182 3182 3183 3182 3181 3179 3178 3177 3176 3176 3175 3174 3173 3172
3176 3177 3177 3178 3179 3180 3181 3181 3181 3182 3182 3181 3181 3181 3181 3180 3179 3180 3181 3180 3180 3179 3181 3182 3182 3181 3181 3180 3180 3180 3180 3180 3178 3177 3176 3175 3174 3174 3173 3172 3171 3171
3173 3174 3175 3176 3176 3177 3177 3177 3178 3179 3178 3178 3178 3178 3178 3178 3177 3178 3177 3177 3176 3176 3178 3178 3177 3178 3178 3177 3177 3178 3177 3177 3176 3175 3174 3173 3172 3171 3171 3170 3169 3169
3170 3171 3172 3173 3174 3174 3174 3174 3174 3175 3175 3175 3175 3174 3174 3175 3175 3175 3174 3174 3173 3174 3174 3174 3173 3174 3174 3174 3174 3174 3174 3174 3173 3172 3171 3170 3170 3169 3168 3167 3167 3167
3168 3169 3170 3171 3171 3171 3171 3171 3170 3171 3172 3172 3171 3171 3171 3172 3172 3171 3171 3170 3170 3170 3170 3170 3170 3170 3170 3171 3170 3170 3170 3170 3170 3170 3169 3168 3167 3166 3165 3165 3164 3164
3165 3166 3167 3168 3168 3167 3168 3168 3167 3166 3168 3169 3168 3168 3168 3168 3168 3168 3167 3167 3167 3166 3165 3165 3166 3166 3166 3167 3167 3166 3166 3167 3167 3167 3166 3165 3165 3164 3163 3163 3162 3162
3163 3163 3164 3164 3164 3164 3165 3165 3163 3162 3164 3165 3165 3165 3164 3164 3164 3164 3164 3164 3162 3162 3162 3161 3161 3161 3162 3162 3163 3163 3163 3163 3163 3163 3163 3163 3162 3161 3161 3161 3161 3160
3160 3160 3161 3161 3160 3160 3161 3161 3159 3158 3160 3163 3163 3162 3160 3159 3161 3161 3161 3159 3157 3156 3156 3156 3156 3157 3158 3159 3159 3160 3160 3160 3160 3160 3160 3160 3159 3159 3159 3159 3159 3158
3157 3157 3157 3157 3157 3157 3157 3157 3156 3154 3157 3160 3160 3158 3156 3155 3156 3157 3156 3155 3152 3150 3150 3151 3151 3153 3154 3156 3156 3156 3156 3157 3157 3157 3157 3157 3157 3156 3156 3156 3156 3155
3153 3154 3154 3153 3153 3153 3153 3153 3151 3150 3153 3156 3154 3153 3152 3151 3152 3151 3151 3150 3147 3144 3144 3146 3147 3148 3150 3152 3153 3152 3152 3153 3154 3154 3154 3154 3154 3153 3153 3153 3152 3151
3150 3150 3150 3150 3149 3149 3149 3148 3146 3145 3147 3150 3149 3147 3146 3147 3147 3146 3145 3143 3141 3139 3140 3142 3144 3144 3145 3148 3149 3149 3149 3149 3150 3151 3151 3151 3151 3151 3150 3150 3148 3147
3147 3147 3147 3146 3146 3146 3145 3143 3142 3141 3141 3143 3143 3142 3142 3142 3141 3140 3139 3137 3136 3137 3137 3139 3140 3139 3141 3144 3144 3145 3146 3146 3147 3148 3148 3149 3148 3148 3147 3147 3145 3144
3144 3143 3143 3142 3142 3141 3140 3139 3138 3137 3137 3137 3137 3137 3136 3135 3134 3133 3133 3132 3133 3133 3134 3135 3136 3136 3137 3139 3140 3141 3142 3143 3144 3145 3145 3145 3145 3145 3144 3143 3142 3141
3140 3140 3139 3138 3137 3137 3136 3135 3134 3133 3132 3132 3132 3131 3130 3129 3128 3127 3127 3128 3129 3130 3130 3130 3131 3132 3133 3134 3136 3138 3139 3140 3141 3142 3142 3142 3142 3141 3141 3140 3139 3139
3137 3136 3135 3134 3134 3133 3132 3131 3130 3129 3128 3127 3127 3126 3125 3124 3123 3122 3122 3123 3124 3125 3126 3126 3127 3128 3129 3131 3133 3135 3136 3137 3138 3138 3139 3139 3139 3138 3138 3137 3136 3135
3133 3132 3131 3130 3130 3129 3128 3127 3125 3124 3123 3122 3122 3121 3121 3120 3118 3117 3118 3119 3120 3121 3122 3122 3123 3124 3126 3128 3130 3132 3133 3134 3135 3136 3136 3137 3136 3135 3135 3133 3132 3131
3129 3128 3127 3126 3125 3124 3123 3122 3120 3119 3118 3118 3117 3116 3116 3115 3114 3114 3114 3115 3116 3117 3119 3120 3121 3122 3123 3126 3127 3129 3130 3131 3132 3133 3133 3133 3133 3132 3131 3130 3128 3127
3125 3125 3124 3123 3121 3120 3119 3117 3116 3114 3114 3113 3113 3112 3111 3111 3110 3110 3110 3111 3112 3114 3116 3118 3119 3119 3121 3123 3124 3125 3126 3127 3128 3129 3130 3129 3129 3128 3128 3127 3125 3124
3122 3121 3120 3119 3118 3116 3114 3113 3112 3111 3110 3109 3109 3108 3107 3107 3107 3107 3107 3108 3110 3111 3112 3114 3116 3117 3118 3120 3121 3122 3123 3123 3124 3125 3126 3125 3125 3125 3124 3123 3121 3121
3118 3118 3117 3115 3114 3112 3111 3109 3108 3107 3107 3106 3105 3104 3104 3103 3104 3104 3105 3106 3107 3108 3109 3112 3114 3114 3115 3117 3119 3119 3120 3120 3121 3122 3122 3122 3122 3122 3120 3119 3118 3116
Wind_Speed
20 19 18 18 20 20 20 19 18 17 16 14 13 12 12 11 11 11 11 11 11 11 12 12 12 12 11 9 8 8 8 8 7 8 9 9 8 9 9 9 9 9
20 20 20 21 22 21 20 20 19 18 17 15 15 14 14 14 14 14 14 13 12 13 13 13 13 12 11 10 9 9 9 8 8 9 9 9 9 9 9 9 8 8
22 22 22 22 23 22 22 22 21 20 19 17 17 17 17 17 18 17 16 14 14 14 14 14 15 14 12 11 10 10 10 10 10 10 10 9 9 9 9 9 7 7
24 24 24 24 25 24 24 24 23 22 21 20 20 20 21 21 21 19 18 17 18 18 15 14 15 16 14 12 11 11 11 12 12 11 10 10 10 10 10 9 8 7
25 25 26 26 26 26 27 27 25 24 24 24 24 24 24 24 23 22 21 21 20 17 13 14 17 19 17 14 11 11 13 15 14 13 12 12 12 11 11 11 10 9
26 26 27 28 28 28 28 28 28 28 29 28 27 28 27 27 27 26 24 23 21 19 19 22 24 23 21 18 14 13 17 18 17 14 13 13 13 12 11 12 11 11
25 25 27 28 29 29 29 31 32 32 31 31 31 31 31 32 31 29 28 28 28 29 29 27 28 27 24 21 19 19 21 21 19 16 15 14 14 13 12 13 13 12
24 25 27 28 30 30 31 34 35 34 34 34 35 34 34 35 35 33 33 34 36 37 32 28 28 29 27 24 23 23 22 21 20 18 17 16 15 14 14 14 14 13
24 25 26 27 30 31 32 36 38 37 37 37 37 37 37 37 37 36 37 39 40 39 34 29 29 29 28 28 26 25 25 24 21 20 19 18 17 16 16 15 15 14
25 25 25 27 29 30 32 38 40 38 38 39 39 40 40 39 38 39 40 40 40 38 34 32 32 33 32 29 28 27 27 27 23 21 20 19 18 18 17 17 16 16
25 25 25 26 27 28 31 36 40 39 39 41 42 42 42 41 41 42 42 41 40 39 38 36 36 37 36 32 28 27 27 27 24 21 22 21 19 19 18 18 18 17
24 24 25 25 26 28 30 34 41 41 40 41 43 43 44 44 43 43 43 43 43 44 44 40 38 40 40 36 29 27 27 27 25 23 22 21 20 20 19 18 18 18
25 25 25 25 27 28 28 32 39 43 42 42 44 44 45 45 45 45 45 46 49 50 48 45 42 42 43 40 31 27 27 27 25 24 22 21 20 20 19 18 18 18
25 25 25 26 27 27 27 30 36 42 43 43 44 44 45 46 45 45 47 49 53 56 53 50 48 44 42 40 31 26 27 26 25 24 23 21 20 19 18 18 18 17
27 27 26 26 26 27 27 29 34 39 41 41 42 44 44 46 45 44 46 47 52 57 57 55 54 49 45 39 28 25 27 26 26 25 23 21 20 19 19 19 18 18
27 27 26 27 28 28 29 30 33 37 38 36 37 40 40 41 41 41 42 42 47 56 58 55 54 53 49 40 27 25 27 27 26 25 24 22 20 20 20 20 21 21
27 27 28 29 29 30 31 32 33 36 36 33 33 35 36 36 36 37 38 40 46 54 57 54 52 53 50 39 28 27 27 27 27 26 24 22 21 22 22 22 23 24
27 29 30 31 32 33 34 36 36 37 38 36 35 35 33 32 33 34 36 40 45 49 50 49 50 52 46 35 29 29 28 28 28 27 24 23 23 23 24 24 25 26
28 29 30 31 32 32 33 34 35 36 37 36 36 35 33 31 31 31 33 36 39 39 39 41 45 46 38 29 28 29 29 30 30 27 25 25 24 23 24 25 27 28
25 26 27 27 26 27 28 30 32 34 35 34 34 34 33 31 28 27 30 33 34 34 35 38 40 37 30 26 28 30 30 31 30 28 26 25 24 24 25 26 28 30
20 20 21 22 23 25 26 28 30 32 32 32 31 32 32 30 28 26 27 29 31 31 31 34 34 30 25 26 29 31 31 31 30 29 27 26 25 25 26 28 31 32
16 17 19 21 22 24 25 27 30 30 31 31 30 31 30 29 29 29 27 28 28 26 25 28 29 26 24 27 30 31 31 31 30 29 28 27 27 28 28 31 33 33
16 17 19 21 23 24 25 27 29 30 31 30 29 30 30 28 28 29 29 29 27 25 25 27 26 25 26 28 30 31 31 31 30 30 29 30 30 30 30 32 35 34
17 19 21 23 24 25 26 28 30 30 30 30 28 29 29 29 28 29 31 30 27 26 28 27 26 27 29 29 30 31 31 31 32 31 31 32 33 32 31 33 36 36
19 20 22 24 25 26 26 28 30 30 30 29 28 28 29 28 27 28 30 30 27 27 28 28 27 29 31 31 30 30 31 32 33 32 33 33 34 34 34 36 38 38
21 22 23 25 26 26 27 28 29 29 28 27 27 28 27 26 26 27 28 28 26 26 28 28 28 30 31 30 30 30 32 34 33 32 33 34 34 35 38 40 41 40
Wind_Direction
209 211 211 210 211 213 214 217 220 224 228 230 233 242 253 264 275 286 296 305 314 319 320 322 325 326 326 323 320 316 314 313 309 304 302 302 302 300 301 303 303 301
216 216 216 215 217 220 222 223 225 227 230 232 237 246 253 263 271 277 284 293 303 311 314 314 315 317 316 312 308 305 305 303 300 297 296 297 298 297 296 297 296 296
222 222 222 223 224 227 227 228 231 234 237 241 247 253 257 262 267 272 277 285 294 302 305 306 308 309 309 305 302 300 298 297 295 294 293 292 292 291 291 291 292 294
228 228 229 229 231 232 232 234 239 242 246 250 253 255 258 261 265 269 272 276 284 291 294 299 303 304 305 301 296 297 298 295 293 294 295 295 294 294 293 294 296 297
232 233 234 235 236 237 237 240 245 248 251 251 252 253 254 258 263 265 267 273 279 279 281 294 299 296 294 290 289 301 303 295 291 294 294 294 296 297 298 300 303 307
234 236 238 239 241 242 242 245 249 251 251 251 254 256 257 260 263 261 264 272 275 271 278 292 295 290 286 284 290 305 305 294 288 289 289 288 292 294 296 299 302 307
236 239 241 243 245 246 246 247 249 252 254 256 258 259 259 262 261 261 266 273 277 279 288 299 298 290 285 285 290 294 294 289 284 285 285 283 286 289 291 293 296 302
239 241 243 246 247 249 250 250 250 253 255 257 257 257 259 261 262 267 272 275 278 283 291 299 300 294 285 282 287 288 288 285 280 281 283 280 283 286 287 289 293 298
242 244 246 248 250 252 253 251 251 252 253 256 258 258 260 262 264 271 274 273 276 282 286 289 295 297 289 282 282 285 287 285 278 277 281 281 283 286 288 289 292 295
244 248 251 254 256 258 257 254 255 256 254 255 260 262 264 265 267 272 275 276 278 280 280 281 288 295 295 289 283 281 283 281 274 275 279 280 282 285 288 290 291 295
247 252 256 259 262 264 263 260 260 260 258 257 260 265 267 268 269 273 277 280 280 279 279 279 283 290 296 297 287 277 278 276 271 274 276 278 282 285 287 289 290 293
250 255 259 264 266 267 268 264 261 261 262 261 262 266 269 269 271 274 276 278 279 281 283 282 282 285 292 298 289 273 272 273 270 271 273 276 282 285 286 288 290 292
252 257 261 265 267 267 269 268 264 263 263 262 262 266 269 270 272 274 276 278 277 281 285 283 282 283 287 294 290 272 267 268 265 266 270 275 281 284 285 287 289 292
252 256 260 261 263 264 265 267 266 265 263 260 262 267 271 273 274 274 276 278 278 279 280 279 281 282 285 292 289 268 263 264 262 264 270 274 278 280 281 284 287 291
253 256 258 258 260 262 262 264 267 267 265 262 263 267 270 273 274 271 273 278 279 278 276 275 278 281 284 291 284 263 263 265 260 264 269 272 275 276 278 282 285 290
255 256 258 258 258 260 261 263 265 267 267 268 269 270 271 272 273 272 274 276 275 274 272 273 276 278 282 287 278 261 265 264 259 263 267 269 272 273 276 282 286 291
254 256 258 260 261 263 265 266 267 268 270 271 271 271 272 272 271 270 269 267 266 269 270 272 275 277 282 284 271 261 264 261 257 261 265 268 272 274 278 283 288 294
256 260 263 266 268 269 270 271 271 272 273 273 272 272 272 270 268 267 263 262 265 270 272 273 273 276 281 278 262 257 260 257 254 259 263 268 272 274 279 284 289 294
262 266 268 270 271 273 273 274 274 274 274 276 278 279 277 274 271 268 264 263 266 269 271 270 270 274 277 268 255 254 255 252 252 257 262 267 271 275 280 284 288 292
266 268 271 273 275 278 278 278 279 278 278 279 280 281 280 277 273 267 262 261 262 263 265 266 267 269 266 256 250 251 250 249 252 255 260 266 270 276 280 283 286 290
267 270 276 281 284 285 285 283 281 280 281 280 279 278 277 274 268 263 258 255 253 256 260 263 264 260 249 243 246 247 247 249 250 253 258 265 271 276 280 283 285 287
267 276 285 291 293 293 291 286 282 280 280 279 278 276 274 268 262 257 250 243 243 250 258 259 255 243 233 236 243 244 246 248 248 252 258 264 269 274 278 281 284 286
275 287 296 301 303 303 298 289 283 280 279 279 278 276 273 268 259 251 242 236 236 247 256 253 244 232 229 236 242 243 244 246 248 253 259 263 269 274 279 285 289 290
283 294 302 307 309 308 301 292 285 281 281 280 279 276 273 267 256 245 238 234 233 240 245 242 234 230 230 235 241 242 242 244 248 253 259 264 269 274 279 284 287 288
288 297 303 308 310 309 302 292 286 284 283 282 280 279 274 266 254 242 236 235 234 235 235 230 226 229 232 235 240 241 240 243 248 254 261 267 272 279 283 284 285 289
292 299 304 307 309 308 300 290 286 285 284 283 281 279 274 265 255 244 237 235 234 232 229 225 225 231 236 238 239 239 239 244 250 257 264 271 278 285 287 288 288 290